Regional Weather Roundup
Issued by NWS Goodland, KS

Home | Current Version | Previous Version | Graphics & Text | Print | Product List | Glossary On
Versions: 1 2 3 4 5 6 7 8 9 10 11 12 13 14 15 16 17 18 19 20 21 22 23 24 25 26 27 28 29 30 31 32 33 34 35 36 37 38 39 40 41 42 43 44 45 46 47 48 49 50
000
ASUS43 KGLD 280008
RWRGLD

GOODLAND FORECAST AREA HOURLY WEATHER ROUNDUP
NATIONAL WEATHER SERVICE GOODLAND KS
500 PM MST TUE JAN 27 2015

...OFFICIAL OBSERVATIONS...

CITY           SKY/WX    TMP DP  RH WIND       PRES   REMARKS
GOODLAND KS    MOCLDY    60  27  28 S6        29.98F
HILL CITY KS   CLEAR     67  30  25 CALM      29.94R
IMPERIAL NEB   PTCLDY    60  26  27 NE3       29.95F
MCCOOK NEB     CLEAR     69  29  22 CALM      29.93F
AKRON CO       PTCLDY    57  32  38 E8        29.99F
BURLINGTON CO  MOCLDY    59  32  36 S13       30.00F
LIMON CO       CLEAR     57  21  24 S9        30.04S
$$

...UNOFFICIAL OBSERVATIONS...

CITY           SKY/WX    TMP DP  RH WIND       PRES   REMARKS
COLBY KS       CLEAR     55  32  41 SW10      29.98S
GOVE KS          N/A     67  32  27 MISG        N/A
NORTON KS      CLEAR     63  21  20 CALM      29.92F
SHARON SPRINGS   N/A     61  29  30 S8          N/A
KIT CARSON CO    N/A     62  30  30 MISG        N/A
YUMA CO          N/A     62  28  27 E7          N/A
$$


USA.gov is the U.S. government's official web portal to all federal, state and local government web resources and services.